| time (UTC) | temp C | wind direction | speed KPH | gust KPH | rain 1hr cm | rain 24hr cm | rain mn cm | humidity % | barometer mb |
| 20260505101534 | 10 | 159 | 0.0 | 0.0 | 0.00 | 0.08 | 0.05 | 63 | 1034.3 |
| 20260505100034 | 10 | 159 | 0.0 | 0.0 | 0.00 | 0.08 | 0.05 | 62 | 1034.3 |
| 20260505094531 | 11 | 159 | 0.0 | 0.0 | 0.00 | 0.08 | 0.05 | 61 | 1034.2 |
| 20260505093030 | 11 | 159 | 0.0 | 0.0 | 0.00 | 0.08 | 0.05 | 60 | 1034.1 |
| 20260505091534 | 11 | 159 | 0.0 | 0.0 | 0.00 | 0.08 | 0.05 | 59 | 1034.1 |
| 20260505090034 | 11 | 159 | 0.0 | 0.0 | 0.00 | 0.08 | 0.05 | 58 | 1034.0 |
| 20260505084526 | 11 | 159 | 0.0 | 0.0 | 0.00 | 0.08 | 0.05 | 58 | 1033.9 |
| 20260505083026 | 11 | 159 | 0.0 | 0.0 | 0.00 | 0.08 | 0.05 | 57 | 1033.7 |
| 20260505081524 | 12 | 159 | 0.0 | 0.0 | 0.00 | 0.08 | 0.05 | 57 | 1033.5 |
| 20260505080031 | 12 | 159 | 0.0 | 0.0 | 0.00 | 0.13 | 0.05 | 56 | 1033.4 |
| 20260505074518 | 12 | 157 | 0.0 | 0.0 | 0.00 | 0.13 | 0.05 | 56 | 1033.1 |
| 20260505073017 | 12 | 157 | 0.0 | 0.0 | 0.00 | 0.13 | 0.05 | 55 | 1032.8 |
| 20260505071515 | 13 | 157 | 0.0 | 0.0 | 0.00 | 0.13 | 0.05 | 55 | 1032.7 |
| 20260505070015 | 13 | 157 | 0.0 | 0.0 | 0.00 | 0.13 | 0.05 | 54 | 1032.6 |
| 20260505064513 | 13 | 157 | 0.0 | 0.0 | 0.00 | 0.13 | 0.05 | 53 | 1032.4 |
| 20260505063011 | 13 | 157 | 0.0 | 0.0 | 0.00 | 0.13 | 0.05 | 53 | 1032.2 |
| 20260505061516 | 13 | 157 | 1.6 | 8.0 | 0.00 | 0.13 | 0.05 | 52 | 1032.2 |
| 20260505060012 | 13 | 167 | 0.0 | 3.2 | 0.00 | 0.13 | 0.05 | 51 | 1032.1 |
| 20260505054507 | 14 | 178 | 3.2 | 6.4 | 0.00 | 0.13 | 0.05 | 50 | 1031.8 |
| 20260505053007 | 14 | 205 | 0.0 | 3.2 | 0.00 | 0.13 | 0.05 | 49 | 1031.8 |
| 20260505051507 | 14 | 212 | 1.6 | 3.2 | 0.00 | 0.13 | 0.05 | 49 | 1031.6 |
| 20260505041615 | 16 | 228 | 0.0 | 6.4 | 0.00 | 0.13 | 0.05 | 48 | 1031.2 |
| 20260505040059 | 15 | 228 | 1.6 | 11.3 | 0.00 | 0.13 | 0.05 | 50 | 1031.2 |
| 20260505034601 | 15 | 254 | 1.6 | 6.4 | 0.00 | 0.13 | 0.05 | 53 | 1031.1 |
| 20260505033056 | 14 | 175 | 3.2 | 9.7 | 0.00 | 0.13 | 0.05 | 53 | 1031.2 |
| 20260505031601 | 13 | 152 | 0.0 | 4.8 | 0.00 | 0.13 | 0.05 | 56 | 1031.0 |
| 20260505030052 | 13 | 229 | 0.0 | 1.6 | 0.00 | 0.13 | 0.05 | 55 | 1031.1 |
| 20260505024551 | 13 | 277 | 4.8 | 11.3 | 0.00 | 0.13 | 0.05 | 55 | 1031.1 |
| 20260505023054 | 13 | 216 | 0.0 | 4.8 | 0.00 | 0.13 | 0.05 | 56 | 1031.4 |
| 20260505021550 | 13 | 209 | 0.0 | 8.0 | 0.00 | 0.13 | 0.05 | 55 | 1031.4 |
| 20260505020049 | 13 | 226 | 1.6 | 8.0 | 0.00 | 0.13 | 0.05 | 55 | 1031.6 |
| 20260505014549 | 13 | 190 | 0.0 | 6.4 | 0.00 | 0.13 | 0.05 | 55 | 1031.8 |
| 20260505013048 | 13 | 153 | 3.2 | 8.0 | 0.00 | 0.13 | 0.05 | 55 | 1031.7 |
| 20260505011549 | 14 | 232 | 3.2 | 11.3 | 0.00 | 0.13 | 0.05 | 56 | 1031.8 |
| 20260505004543 | 13 | 212 | 0.0 | 8.0 | 0.00 | 0.13 | 0.05 | 60 | 1031.6 |
| 20260505003039 | 12 | 292 | 3.2 | 11.3 | 0.00 | 0.13 | 0.05 | 62 | 1031.4 |
| 20260505001546 | 11 | 248 | 0.0 | 12.9 | 0.00 | 0.13 | 0.05 | 66 | 1031.3 |
| 20260505000038 | 10 | 188 | 1.6 | 6.4 | 0.00 | 0.13 | 0.05 | 67 | 1031.3 |
| 20260504234527 | 10 | 212 | 1.6 | 9.7 | 0.00 | 0.13 | 0.05 | 68 | 1031.1 |
| 20260504233025 | 10 | 180 | 1.6 | 6.4 | 0.00 | 0.13 | 0.05 | 68 | 1031.2 |
| 20260504231530 | 10 | 184 | 1.6 | 4.8 | 0.03 | 0.13 | 0.05 | 68 | 1031.2 |
| 20260504230020 | 10 | 205 | 0.0 | 0.0 | 0.03 | 0.13 | 0.05 | 68 | 1030.9 |
| 20260504224523 | 10 | 192 | 0.0 | 0.0 | 0.05 | 0.13 | 0.05 | 68 | 1030.7 |
| 20260504223018 | 10 | 207 | 0.0 | 0.0 | 0.05 | 0.13 | 0.05 | 68 | 1030.5 |
| 20260504221514 | 10 | 207 | 0.0 | 0.0 | 0.05 | 0.10 | 0.05 | 67 | 1030.4 |
| 20260504220017 | 10 | 207 | 0.0 | 0.0 | 0.05 | 0.10 | 0.05 | 67 | 1030.1 |
| 20260504214510 | 9 | 207 | 0.0 | 0.0 | 0.03 | 0.08 | 0.03 | 67 | 1029.9 |
| 20260504213010 | 9 | 207 | 0.0 | 0.0 | 0.03 | 0.08 | 0.03 | 67 | 1029.5 |
| 20260504211505 | 9 | 207 | 0.0 | 0.0 | 0.00 | 0.05 | 0.00 | 67 | 1029.3 |
| 20260504210003 | 9 | 207 | 0.0 | 0.0 | 0.00 | 0.05 | 0.00 | 66 | 1029.2 |
| 20260504204501 | 9 | 207 | 0.0 | 0.0 | 0.00 | 0.05 | 0.00 | 66 | 1029.0 |
| 20260504203103 | 9 | 207 | 0.0 | 0.0 | 0.00 | 0.05 | 0.00 | 66 | 1028.8 |
| 20260504201601 | 9 | 207 | 0.0 | 0.0 | 0.00 | 0.05 | 0.00 | 66 | 1028.4 |
| 20260504200100 | 9 | 207 | 0.0 | 0.0 | 0.00 | 0.05 | 0.00 | 66 | 1028.4 |
| 20260504194608 | 10 | 207 | 0.0 | 0.0 | 0.00 | 0.05 | 0.00 | 65 | 1028.2 |
| 20260504193053 | 10 | 207 | 0.0 | 0.0 | 0.00 | 0.05 | 0.00 | 65 | 1028.1 |
| 20260504191552 | 10 | 252 | 0.0 | 0.0 | 0.00 | 0.05 | 0.00 | 65 | 1028.0 |
| 20260504190115 | 10 | 251 | 0.0 | 0.0 | 0.00 | 0.05 | 0.00 | 65 | 1028.0 |
| 20260504184556 | 10 | 251 | 0.0 | 0.0 | 0.00 | 0.05 | 0.00 | 65 | 1027.7 |
| 20260504183049 | 10 | 251 | 0.0 | 0.0 | 0.00 | 0.05 | 0.00 | 65 | 1027.6 |
| 20260504181553 | 10 | 245 | 0.0 | 3.2 | 0.00 | 0.05 | 0.00 | 65 | 1027.4 |
| 20260504180118 | 10 | 302 | 0.0 | 4.8 | 0.00 | 0.05 | 0.00 | 65 | 1027.3 |
| 20260504174549 | 10 | 303 | 0.0 | 14.5 | 0.00 | 0.05 | 0.00 | 65 | 1027.1 |
| 20260504173057 | 10 | 250 | 0.0 | 4.8 | 0.00 | 0.05 | 0.00 | 66 | 1027.1 |
| 20260504171543 | 10 | 250 | 0.0 | 1.6 | 0.00 | 0.05 | 0.00 | 66 | 1027.0 |